Regional Weather Roundup
Issued by NWS

Home | Current Version | Previous Version | Graphics & Text | Print | Product List | Glossary On
Versions: 1 2 3 4 5 6 7 8 9 10 11 12 13 14 15 16 17 18 19 20 21 22 23 24 25 26 27
000
ASUS45 KCYS 260010
RWRWY

WYOMING REGIONAL WEATHER ROUNDUP
NATIONAL WEATHER SERVICE CHEYENNE WY
600 PM MDT TUE JUL 25 2017

NOTE:  "FAIR" INDICATES FEW OR NO CLOUDS BELOW 12,000 FEET
WITH NO SIGNIFICANT WEATHER AND/OR OBSTRUCTIONS TO VISIBILITY.

WYZ001-260100-
YELLOWSTONE NATIONAL PARK

CITY           SKY/WX    TMP DP  RH WIND       PRES   REMARKS
LK YELLOWSTONE   N/A     53  53 100 CALM      30.40F
6HR MIN TEMP:  52; 6HR MAX TEMP:  64; 6HR PCP:  0.60;

W YELLOWSTONE  NOT AVBL

$$
WYZ002>013-054>058-071-098>099-260100-
NORTHERN WYOMING

CITY           SKY/WX    TMP DP  RH WIND       PRES   REMARKS
JACKSON        SUNNY     63  55  77 N6        30.28F
CODY           FAIR      62  54  74 SE7       30.24R
GREYBULL       PTSUNNY   73  43  33 E3        30.17R
6HR MIN TEMP:  73; 6HR MAX TEMP:  76; 6HR PCP: TRACE;

WORLAND        CLOUDY    70  49  47 NE7       30.17S
6HR MIN TEMP:  70; 6HR MAX TEMP:  77; 6HR PCP: TRACE;

SHERIDAN       LGT RAIN  65  59  81 SW6       30.17S
6HR MIN TEMP:  65; 6HR MAX TEMP:  76; 6HR PCP:  0.01;

BUFFALO        LGT RAIN  64  58  80 SE6       30.23S
6HR MIN TEMP:  62; 6HR MAX TEMP:  72; 6HR PCP:  0.09;

GILLETTE       LGT RAIN  67  63  87 NW7       30.16R
6HR MIN TEMP:  67; 6HR MAX TEMP:  80; 6HR PCP:  0.02;

HULETT         LGT RAIN  70  59  68 CALM      30.16R
NEWCASTLE      FAIR      79  52  38 NE14      30.08S

$$
WYZ014>020-022>026-101>103-260100-
CENTRAL WYOMING

CITY           SKY/WX    TMP DP  RH WIND       PRES   REMARKS
BIG PINEY      LGT RAIN  62  55  77 NE14      30.29R
6HR MIN TEMP:  62; 6HR MAX TEMP:  72; 6HR PCP:  0.09;

PINEDALE       CLOUDY    64  50  59 N10G16    30.29S
DUBOIS         CLOUDY    61  46  59 NW7       30.32S
LANDER         CLOUDY    67  52  58 VRB3      30.21S
6HR MIN TEMP:  67; 6HR MAX TEMP:  71; 6HR PCP: TRACE;

RIVERTON       NOT AVBL
CASPER         LGT RAIN  67  57  70 E6        30.21R
6HR MIN TEMP:  67; 6HR MAX TEMP:  81; 6HR PCP:  0.02;

DOUGLAS        CLOUDY    77  51  40 NW16      30.15R
6HR MIN TEMP:  77; 6HR MAX TEMP:  86; 6HR PCP: TRACE;


$$
WYZ021-027>030-104>119-260100-
SOUTHERN WYOMING

CITY           SKY/WX    TMP DP  RH WIND       PRES   REMARKS
EVANSTON       CLOUDY    64  54  69 E7        30.27F
6HR MIN TEMP:  60; 6HR MAX TEMP:  71;

KEMMERER         N/A     72  43  35 N5        30.27F
FORT BRIDGER   CLOUDY    72  49  44 SW10      30.29S
ROCK SPRINGS   PTSUNNY   71  52  50 NE9       30.24S
6HR MIN TEMP:  64; 6HR MAX TEMP:  75; 6HR PCP: TRACE;

RAWLINS        CLOUDY    64  58  80 E10       30.27F
6HR MIN TEMP:  61; 6HR MAX TEMP:  69; 6HR PCP:  0.15;

SARATOGA       MOCLDY    63  61  94 SE5       30.30S
LARAMIE        HVY RAIN  59  57  93 NW10G25   30.33R FOG
6HR MIN TEMP:  60; 6HR MAX TEMP:  79; 6HR PCP:  0.03;

CHEYENNE       PTSUNNY   74  52  46 NW16G26   30.18R
6HR MIN TEMP:  74; 6HR MAX TEMP:  85;

TORRINGTON     FAIR      84  55  36 N10       30.01R
6HR MIN TEMP:  84; 6HR MAX TEMP:  94;

PINE BLUFFS    MOCLDY    84  45  24 N17G25    30.08R

$$




USA.gov is the U.S. government's official web portal to all federal, state and local government web resources and services.